Wind_Speed
72 70 69 64 63 61 59 58 56 54 51 49 46 44 41 40 41 40 39 38 36 36 35 35 35 36 37 38 34 35 36 37 36 36 37 36 37 36 35 33 32 34 36 34 32
72 71 69 66 65 63 60 61 58 55 50 50 46 44 41 42 40 40 38 38 38 36 34 34 35 36 38 36 36 34 38 39 39 39 39 38 39 40 39 37 35 35 36 33 29
65 65 65 65 65 64 62 62 60 58 53 51 48 46 44 42 43 41 39 39 39 37 35 36 37 38 38 38 39 37 41 39 39 39 39 39 40 40 41 39 38 35 34 30 26
58 61 58 58 60 58 59 59 59 58 56 52 51 48 47 45 44 42 40 40 40 38 36 36 36 37 38 38 41 40 40 41 40 39 38 39 40 40 40 39 38 34 32 30 27
56 55 55 55 53 53 51 52 52 56 56 52 52 49 49 47 47 44 42 42 41 40 39 38 36 36 36 36 39 40 42 42 41 40 41 40 39 40 41 41 37 34 33 30 30
57 58 57 56 55 55 51 47 47 50 52 51 53 50 49 48 47 46 45 44 43 42 42 41 39 38 38 36 38 38 40 41 41 40 39 40 40 40 41 42 37 34 33 30 30
54 54 54 55 55 54 52 50 48 53 50 51 52 51 49 46 44 47 45 44 43 43 42 40 40 41 41 39 38 38 39 40 40 40 41 41 42 42 41 39 39 33 33 31 29
49 51 54 55 55 53 53 52 50 50 48 51 50 49 47 49 49 46 40 42 42 38 37 36 35 34 34 37 38 37 38 39 40 40 41 42 43 42 43 42 42 39 35 33 29
43 46 53 54 54 54 54 51 51 50 48 49 46 45 47 45 42 41 43 40 38 35 36 36 32 33 32 33 36 37 37 37 39 39 41 43 44 43 44 43 44 41 36 32 31
41 41 48 52 53 54 54 52 52 51 48 50 49 52 47 42 42 43 40 39 36 35 34 31 30 31 30 32 33 34 35 36 38 38 40 41 42 44 45 44 44 42 39 35 32
39 38 42 47 50 50 53 49 52 49 47 51 54 49 48 45 45 41 40 39 36 32 31 32 32 32 30 29 30 31 32 34 37 39 37 38 40 42 44 43 42 42 40 38 35
37 36 40 44 46 48 50 50 51 50 49 53 50 51 52 51 48 41 41 39 36 34 33 34 34 31 29 28 27 29 30 32 36 35 34 36 38 38 39 39 38 39 36 34 33
37 37 37 40 44 45 45 48 47 48 50 50 51 49 47 45 43 42 42 38 37 36 34 34 29 30 28 27 27 28 29 33 36 36 37 35 36 33 37 37 35 34 30 31 29
35 38 38 42 44 46 45 47 46 47 49 50 48 46 45 43 42 43 41 40 39 38 36 34 31 30 30 28 28 29 30 31 31 32 33 33 36 36 39 35 31 30 27 25 25
29 32 35 40 44 43 45 44 46 48 50 46 44 44 44 44 43 43 42 41 40 39 39 36 34 33 32 28 30 28 32 32 33 33 36 37 38 40 34 31 27 25 25 23 23
25 26 31 34 39 43 45 46 48 48 48 44 45 45 46 44 45 42 43 43 41 41 41 39 37 35 33 33 33 32 34 34 34 36 37 35 35 37 34 33 32 28 31 28 23
31 34 35 34 36 37 41 42 45 46 45 44 48 45 46 44 44 44 44 44 44 43 43 41 41 38 36 35 36 35 35 35 36 37 37 28 35 36 33 33 31 30 32 30 22
37 37 41 42 45 45 40 36 32 36 34 35 43 45 45 45 45 45 45 45 45 46 45 45 45 40 39 39 38 38 37 37 38 35 37 28 35 35 35 34 31 30 28 25 22
43 38 35 41 40 42 39 35 37 37 32 40 42 46 48 48 49 50 50 50 48 47 48 47 49 44 43 42 41 40 40 38 34 32 31 33 34 40 35 37 33 32 27 22 22
44 41 37 37 43 40 38 40 37 37 40 42 45 48 52 55 57 58 57 57 54 53 53 50 49 47 43 45 42 41 39 36 33 33 33 31 36 40 34 36 32 32 27 23 18
49 48 43 41 38 36 37 37 40 42 43 42 46 50 56 58 62 64 64 60 58 56 54 53 52 47 46 47 43 41 37 36 36 35 35 32 27 34 28 32 33 31 26 22 18
58 55 52 48 45 42 42 40 40 42 40 41 45 52 59 50 55 57 56 55 56 54 51 52 48 48 44 45 42 39 39 38 39 39 35 34 37 32 33 33 32 28 27 19 21
63 65 59 56 53 48 44 38 41 35 35 33 31 40 39 49 39 46 38 36 44 45 46 45 45 45 40 40 42 40 40 39 40 40 34 25 41 24 33 27 27 26 24 19 22
69 69 69 62 57 56 49 47 41 35 32 26 20 24 45 52 52 50 46 42 42 38 36 38 36 36 38 36 37 42 43 42 41 40 38 30 27 30 35 29 25 24 20 18 23
76 71 72 70 65 62 54 50 45 39 33 28 23 27 28 24 36 46 46 35 39 34 35 33 34 36 38 34 35 37 42 41 39 41 35 23 14 21 36 36 26 23 20 20 24
81 80 75 71 71 69 63 56 52 47 38 35 30 29 29 32 34 38 28 35 35 33 35 36 36 32 32 31 29 29 34 35 33 35 36 33 33 30 48 39 29 28 23 24 27
86 84 81 75 75 72 68 63 58 51 47 40 36 30 33 31 24 27 35 38 36 39 36 34 33 27 24 23 20 20 29 32 28 30 34 35 38 34 37 35 28 31 26 28 33
Wind_Direction
253 253 253 252 251 252 252 251 252 253 252 252 252 252 253 250 251 252 256 260 259 255 251 249 250 248 249 251 252 251 251 251 254 259 264 269 275 278 282 285 292 298 301 304 305
249 250 249 249 250 249 249 250 252 252 249 248 250 251 247 247 246 249 252 254 256 254 250 252 246 245 246 248 251 252 255 253 254 258 263 269 273 278 282 289 293 299 299 301 305
246 246 247 247 247 247 247 247 247 248 248 245 245 247 248 244 244 246 250 249 251 251 249 249 247 247 248 248 251 249 252 252 253 257 262 266 271 276 282 286 290 293 297 299 301
245 245 245 245 246 246 244 244 244 243 244 243 243 241 246 242 243 242 242 245 246 246 247 248 247 250 251 251 251 251 252 254 256 257 261 265 269 275 280 283 287 289 292 294 295
242 242 241 241 241 242 242 238 236 237 239 238 238 237 238 239 239 240 240 242 246 248 249 248 248 248 251 251 252 252 254 255 257 260 263 266 269 274 277 281 282 285 287 287 288
242 241 239 238 238 240 238 236 234 231 234 231 232 233 233 235 237 236 239 241 245 248 250 250 249 249 251 252 254 255 254 254 257 260 263 268 272 275 277 279 279 281 284 279 283
240 238 236 235 235 233 231 229 229 221 226 224 228 228 230 229 232 238 237 239 245 247 249 250 249 250 251 252 253 255 252 254 257 261 266 270 273 276 279 280 282 281 279 274 278
240 234 233 232 229 229 227 224 221 223 223 226 227 226 224 227 231 237 237 243 244 245 247 247 248 251 251 251 253 252 253 256 260 263 266 268 273 278 281 282 284 284 280 278 275
238 234 231 230 226 225 223 221 221 222 224 226 223 225 229 229 230 229 237 239 243 243 248 250 252 257 257 254 252 252 253 255 261 265 268 271 274 278 280 283 285 286 282 277 276
237 235 229 224 225 225 223 220 219 220 221 218 219 223 228 228 231 234 235 237 239 243 248 254 256 258 259 255 254 254 255 257 259 262 268 274 279 283 284 286 287 286 285 283 281
231 235 225 221 223 223 223 217 218 220 223 220 220 224 228 234 236 234 235 234 237 241 248 253 257 258 258 258 257 259 260 262 262 264 271 278 282 285 287 288 288 289 289 289 285
228 230 223 220 220 219 223 220 220 219 223 224 224 225 226 230 236 235 236 236 239 242 245 250 252 256 257 258 258 259 260 261 264 269 271 275 280 285 289 290 289 289 288 286 284
225 226 220 220 218 220 219 219 221 223 223 221 223 227 228 230 233 233 235 235 237 239 243 247 251 253 256 260 263 260 258 259 264 270 274 279 279 283 283 289 289 285 285 286 284
221 221 220 214 215 220 222 219 221 223 223 222 225 225 226 228 230 230 232 233 237 239 241 242 246 253 256 261 266 267 267 266 266 266 268 270 275 277 284 284 285 281 279 287 283
217 219 221 221 220 218 218 219 223 224 225 220 223 223 225 226 229 230 233 234 238 240 241 242 244 250 258 263 267 270 268 268 268 268 268 268 275 278 278 281 280 274 278 284 280
212 223 225 220 223 222 221 221 222 224 225 218 222 224 226 227 231 232 235 237 238 240 242 243 244 250 257 262 266 267 268 267 268 269 268 270 271 274 277 273 277 279 281 278 286
209 225 226 220 216 219 222 224 227 228 227 219 222 227 229 233 234 234 236 239 239 242 244 246 248 250 256 261 267 270 268 264 264 268 267 266 265 267 276 279 284 282 279 282 282
230 240 242 229 228 221 220 220 220 228 219 220 225 229 231 233 233 236 238 240 242 243 246 249 251 254 258 259 263 267 269 264 265 264 266 263 268 272 280 282 284 283 282 284 278
225 229 230 227 227 219 217 222 224 227 224 231 235 237 239 239 239 239 240 243 245 247 250 251 252 254 257 259 261 266 267 263 262 256 260 269 271 279 284 284 283 283 283 283 268
223 221 225 230 230 226 224 222 226 231 233 236 239 241 241 242 243 244 244 245 247 250 251 252 254 252 257 258 262 266 264 258 254 257 265 272 281 284 282 283 279 280 279 278 251
220 214 221 219 219 223 225 226 230 235 238 243 245 247 245 243 242 242 243 246 248 250 252 253 256 252 257 260 263 262 254 253 255 262 267 273 278 275 289 278 276 277 276 273 220
219 216 218 219 219 223 228 230 237 239 243 250 253 251 236 243 235 237 243 244 247 249 250 250 252 257 250 259 256 249 249 250 255 258 266 276 274 265 264 273 276 275 275 257 212
221 218 220 224 224 225 227 230 238 243 249 260 265 223 219 223 230 237 233 245 244 245 246 249 245 249 246 247 248 250 248 251 255 259 260 215 271 270 279 272 272 269 273 233 209
222 222 222 225 226 228 228 232 236 239 248 251 245 215 220 220 215 231 222 219 235 241 241 238 239 244 247 247 248 252 251 253 255 259 260 265 285 274 262 261 260 262 266 221 210
221 222 223 223 225 229 230 234 235 236 241 246 232 230 231 227 224 225 229 216 230 235 236 237 241 243 251 251 251 249 255 252 253 253 252 236 235 310 287 263 249 248 248 220 208
221 221 224 224 225 227 229 231 235 232 232 244 234 232 227 230 226 217 212 220 230 231 232 235 242 249 253 253 252 256 256 252 250 248 241 232 209 201 242 259 251 240 230 214 206
224 223 222 224 224 227 230 229 232 232 230 231 242 236 226 222 219 224 227 226 220 229 235 241 244 238 243 257 261 259 251 244 242 246 245 246 244 244 249 257 254 239 224 209 203
Height
10888 10892 10897 10905 10909 10915 10919 10923 10927 10930 10936 10939 10942 10945 10948 10950 10952 10954 10956 10957 10957 10958 10960 10963 10966 10968 10969 10971 10974 10977 10979 10978 10979 10978 10979 10980 10980 10980 10982 10983 10983 10980 10978 10976 10971
10875 10879 10884 10892 10897 10903 10909 10912 10917 10920 10927 10930 10933 10937 10941 10943 10946 10948 10950 10951 10951 10953 10955 10958 10961 10963 10965 10967 10969 10973 10971 10971 10972 10973 10974 10975 10975 10976 10977 10978 10978 10976 10972 10970 10966
10862 10866 10872 10878 10884 10890 10896 10902 10907 10910 10916 10921 10925 10929 10933 10936 10939 10942 10944 10946 10947 10948 10950 10952 10955 10958 10961 10963 10964 10969 10965 10966 10965 10967 10968 10969 10969 10970 10971 10972 10972 10971 10967 10964 10963
10849 10855 10860 10866 10872 10877 10885 10890 10895 10901 10906 10912 10915 10920 10925 10929 10932 10934 10938 10940 10941 10943 10945 10947 10950 10953 10956 10959 10959 10962 10961 10961 10961 10961 10962 10963 10963 10964 10964 10965 10965 10964 10961 10957 10957
10838 10844 10849 10856 10861 10867 10873 10879 10886 10890 10895 10902 10906 10912 10916 10921 10924 10927 10930 10933 10934 10936 10939 10942 10945 10948 10951 10953 10953 10954 10956 10956 10956 10956 10957 10958 10957 10958 10958 10958 10959 10958 10955 10951 10950
10826 10833 10838 10845 10851 10858 10863 10870 10876 10881 10886 10893 10897 10903 10908 10914 10916 10919 10923 10926 10928 10930 10932 10936 10939 10942 10945 10946 10947 10949 10950 10951 10950 10950 10950 10952 10953 10952 10951 10950 10952 10951 10947 10945 10944
10815 10820 10826 10834 10840 10847 10854 10861 10867 10873 10877 10883 10889 10895 10901 10906 10909 10912 10917 10920 10922 10925 10927 10930 10933 10936 10939 10940 10941 10943 10943 10944 10944 10945 10944 10946 10945 10944 10944 10943 10942 10943 10940 10938 10938
10803 10809 10816 10822 10829 10836 10844 10851 10857 10863 10870 10876 10881 10887 10893 10896 10901 10906 10911 10913 10916 10919 10921 10923 10926 10929 10932 10934 10936 10937 10938 10938 10938 10939 10939 10939 10937 10937 10936 10936 10933 10932 10932 10932 10932
10793 10798 10804 10812 10819 10827 10835 10842 10849 10856 10863 10869 10874 10880 10886 10890 10895 10899 10904 10907 10910 10913 10915 10918 10921 10923 10925 10927 10929 10932 10933 10934 10932 10932 10931 10931 10931 10931 10928 10928 10924 10924 10925 10926 10926
10784 10788 10794 10802 10810 10817 10826 10832 10839 10848 10854 10861 10868 10873 10879 10884 10887 10892 10897 10901 10904 10906 10910 10912 10914 10916 10918 10919 10923 10926 10927 10928 10926 10926 10926 10925 10924 10922 10920 10920 10918 10916 10917 10918 10920
10777 10781 10787 10794 10801 10808 10817 10823 10832 10842 10848 10853 10859 10866 10870 10877 10880 10886 10889 10894 10898 10902 10905 10906 10908 10910 10910 10913 10917 10919 10921 10921 10918 10919 10922 10920 10918 10915 10912 10912 10911 10910 10910 10910 10911
10770 10775 10780 10786 10793 10801 10808 10817 10824 10832 10838 10845 10852 10858 10863 10869 10874 10878 10882 10888 10892 10896 10899 10900 10901 10903 10905 10907 10911 10913 10915 10915 10912 10914 10916 10915 10914 10910 10905 10905 10905 10903 10903 10903 10902
10763 10769 10774 10780 10787 10794 10802 10810 10817 10823 10830 10838 10845 10851 10857 10862 10866 10872 10877 10881 10884 10888 10892 10893 10896 10896 10899 10901 10904 10907 10908 10910 10910 10909 10909 10910 10907 10905 10901 10898 10898 10897 10896 10897 10897
10757 10763 10768 10775 10782 10787 10795 10802 10809 10815 10822 10830 10838 10845 10850 10855 10859 10865 10869 10873 10877 10881 10884 10887 10889 10890 10892 10895 10897 10899 10901 10903 10904 10904 10903 10902 10899 10899 10893 10893 10893 10892 10891 10893 10892
10752 10758 10763 10770 10775 10781 10787 10794 10800 10807 10814 10825 10833 10839 10843 10847 10853 10855 10862 10866 10870 10873 10875 10880 10883 10885 10885 10889 10890 10894 10893 10895 10896 10896 10895 10897 10893 10887 10888 10886 10887 10887 10887 10887 10886
10748 10753 10759 10764 10769 10774 10781 10786 10792 10798 10806 10821 10824 10830 10833 10840 10842 10850 10853 10857 10862 10865 10868 10873 10876 10879 10880 10882 10884 10886 10887 10888 10888 10888 10888 10888 10887 10882 10882 10881 10881 10883 10880 10880 10880
10743 10748 10754 10759 10763 10768 10773 10779 10785 10794 10801 10810 10815 10822 10824 10831 10835 10840 10845 10849 10854 10858 10861 10865 10868 10871 10873 10875 10877 10879 10880 10880 10881 10882 10882 10884 10880 10876 10877 10876 10876 10876 10874 10874 10876
10738 10742 10747 10752 10757 10762 10767 10774 10782 10786 10794 10803 10806 10810 10816 10821 10827 10832 10837 10842 10846 10848 10852 10855 10858 10865 10866 10867 10870 10871 10873 10873 10873 10876 10874 10878 10875 10874 10873 10872 10873 10871 10869 10869 10870
10730 10735 10739 10745 10750 10755 10761 10768 10771 10777 10788 10790 10796 10801 10806 10812 10818 10823 10828 10831 10837 10840 10843 10846 10848 10855 10857 10859 10862 10864 10865 10865 10868 10869 10871 10871 10872 10866 10870 10867 10867 10865 10864 10865 10864
10721 10728 10733 10738 10743 10749 10754 10758 10766 10771 10775 10781 10786 10792 10797 10801 10806 10811 10817 10820 10826 10830 10832 10837 10840 10844 10849 10849 10854 10857 10858 10859 10861 10862 10864 10868 10866 10862 10863 10860 10863 10861 10860 10860 10860
10710 10718 10724 10731 10738 10743 10744 10750 10756 10761 10767 10772 10777 10779 10782 10789 10793 10798 10804 10811 10815 10819 10822 10827 10829 10838 10838 10840 10846 10848 10850 10852 10853 10855 10856 10861 10865 10861 10854 10853 10855 10855 10855 10855 10856
10698 10709 10715 10721 10728 10732 10738 10743 10746 10751 10757 10761 10763 10763 10769 10773 10778 10786 10791 10798 10805 10809 10812 10814 10821 10827 10829 10835 10835 10839 10842 10845 10846 10847 10852 10857 10851 10854 10851 10849 10851 10851 10850 10851 10852
10686 10694 10703 10710 10718 10724 10729 10736 10736 10745 10748 10749 10748 10749 10759 10765 10771 10775 10785 10795 10794 10797 10802 10809 10812 10816 10823 10825 10825 10832 10836 10838 10839 10841 10849 10862 10848 10854 10845 10845 10847 10847 10845 10847 10848
10672 10679 10689 10697 10708 10712 10719 10723 10730 10737 10740 10741 10742 10745 10749 10755 10761 10768 10775 10785 10787 10790 10797 10799 10806 10811 10813 10820 10824 10823 10825 10829 10832 10834 10838 10844 10842 10846 10842 10841 10840 10842 10841 10843 10845
10656 10668 10675 10683 10694 10702 10711 10715 10721 10727 10733 10734 10738 10740 10744 10749 10755 10762 10766 10776 10779 10786 10790 10796 10800 10804 10806 10812 10814 10816 10815 10819 10822 10823 10830 10836 10844 10837 10835 10835 10836 10835 10836 10839 10841
10640 10651 10661 10675 10680 10685 10696 10705 10711 10718 10725 10728 10732 10735 10740 10745 10749 10753 10761 10766 10771 10780 10784 10788 10792 10797 10799 10802 10805 10806 10806 10808 10811 10813 10818 10826 10833 10824 10821 10827 10829 10829 10830 10833 10835
10621 10634 10644 10659 10665 10674 10683 10693 10700 10710 10715 10721 10726 10730 10734 10739 10747 10753 10755 10759 10766 10770 10777 10782 10785 10790 10792 10794 10796 10797 10795 10797 10801 10805 10809 10812 10816 10824 10820 10818 10820 10822 10824 10827 10830